TimeEST,TemperatureF,Dew PointF,Humidity,Sea Level PressureIn,VisibilityMPH,Wind Direction,Wind SpeedMPH,Gust SpeedMPH,PrecipitationIn,Events,Conditions,WindDirDegrees,DateUTC
12:54 AM,8.1,-2.0,64,30.46,10.0,NW,5.8,-,N/A,,Clear,320,2013-01-25 05:54:00
1:54 AM,8.1,-2.0,64,30.45,10.0,NW,8.1,-,N/A,,Clear,320,2013-01-25 06:54:00
2:54 AM,8.1,-2.0,64,30.45,10.0,NNW,6.9,-,N/A,,Clear,340,2013-01-25 07:54:00
3:54 AM,7.0,-0.9,70,30.43,10.0,Calm,Calm,-,N/A,,Clear,0,2013-01-25 08:54:00
4:54 AM,7.0,-0.9,70,30.43,10.0,Calm,Calm,-,N/A,,Clear,0,2013-01-25 09:54:00
5:54 AM,6.1,-0.0,76,30.41,10.0,Calm,Calm,-,N/A,,Clear,0,2013-01-25 10:54:00
6:54 AM,7.0,-0.0,73,30.41,10.0,SW,3.5,-,N/A,,Clear,230,2013-01-25 11:54:00
7:54 AM,8.1,-0.0,70,30.40,10.0,SW,3.5,-,N/A,,Clear,220,2013-01-25 12:54:00
8:54 AM,9.0,1.0,70,30.40,10.0,SW,3.5,-,N/A,,Clear,220,2013-01-25 13:54:00
9:54 AM,10.9,1.9,67,30.39,10.0,Calm,Calm,-,N/A,,Clear,0,2013-01-25 14:54:00
10:54 AM,12.0,1.9,64,30.35,10.0,Calm,Calm,-,N/A,,Clear,0,2013-01-25 15:54:00
11:54 AM,14.0,3.0,62,30.31,10.0,Calm,Calm,-,N/A,,Overcast,0,2013-01-25 16:54:00
12:54 PM,15.1,3.9,61,30.25,10.0,NW,3.5,-,N/A,,Overcast,320,2013-01-25 17:54:00
1:54 PM,15.1,3.9,61,30.20,10.0,Calm,Calm,-,N/A,,Overcast,0,2013-01-25 18:54:00
2:54 PM,16.0,5.0,62,30.16,10.0,Calm,Calm,-,N/A,,Overcast,0,2013-01-25 19:54:00
3:54 PM,16.0,7.0,68,30.15,3.0,Variable,3.5,-,0.00,Snow,Light Snow,0,2013-01-25 20:54:00
3:57 PM,15.8,6.8,68,30.10,1.8,Calm,Calm,-,0.00,Snow,Light Snow,0,2013-01-25 20:57:00
4:16 PM,15.8,8.6,73,30.09,0.8,Calm,Calm,-,0.00,Snow,Light Snow,0,2013-01-25 21:16:00
4:24 PM,15.8,10.4,79,30.09,1.5,Calm,Calm,-,0.01,Snow,Light Snow,0,2013-01-25 21:24:00
4:54 PM,15.1,10.9,84,30.13,0.8,Calm,Calm,-,0.01,Snow,Light Snow,0,2013-01-25 21:54:00
5:29 PM,15.8,10.4,79,30.06,1.5,Calm,Calm,-,0.01,Snow,Light Snow,0,2013-01-25 22:29:00
5:54 PM,15.1,12.0,88,30.12,1.8,West,3.5,-,0.02,Snow,Light Snow,280,2013-01-25 22:54:00
6:01 PM,15.8,10.4,79,30.06,2.5,West,3.5,-,0.00,Snow,Light Snow,270,2013-01-25 23:01:00
6:14 PM,15.8,12.2,86,30.06,1.0,West,3.5,-,0.00,Snow,Light Snow,280,2013-01-25 23:14:00
6:54 PM,15.1,10.9,84,30.10,2.0,South,4.6,-,0.01,Snow,Light Snow,190,2013-01-25 23:54:00
7:26 PM,14.0,8.6,79,30.04,3.0,SW,3.5,-,0.00,Snow,Light Snow,230,2013-01-26 00:26:00
7:54 PM,14.0,8.1,77,30.09,6.0,Calm,Calm,-,0.00,,Haze,0,2013-01-26 00:54:00
8:54 PM,10.9,7.0,84,30.07,8.0,Calm,Calm,-,N/A,,Mostly Cloudy,0,2013-01-26 01:54:00
9:54 PM,8.1,5.0,87,30.06,6.0,Calm,Calm,-,N/A,,Scattered Clouds,0,2013-01-26 02:54:00
10:06 PM,8.6,3.2,79,30.01,6.0,Calm,Calm,-,N/A,,Mostly Cloudy,0,2013-01-26 03:06:00
10:54 PM,9.0,5.0,84,30.05,7.0,Calm,Calm,-,0.00,,Mostly Cloudy,0,2013-01-26 03:54:00
11:05 PM,8.6,5.0,85,30.01,8.0,ESE,3.5,-,N/A,,Scattered Clouds,110,2013-01-26 04:05:00
11:16 PM,10.4,6.8,85,30.01,8.0,Calm,Calm,-,N/A,,Mostly Cloudy,0,2013-01-26 04:16:00
11:54 PM,10.0,6.1,84,30.07,7.0,Calm,Calm,-,N/A,,Overcast,0,2013-01-26 04:54:00